Regional Weather Roundup
Issued by NWS

Current Version | Previous Version | Text Only | Print | Product List | Glossary On
Versions: 1 2 3 4 5 6 7 8 9 10 11 12 13 14 15 16 17 18 19 20 21 22 23 24 25 26 27 28 29 30 31 32 33 34 35 36 37 38 39 40 41 42 43 44 45 46 47 48 49 50
212
ASUS43 KTOP 301908
RWRKS

WEATHER ROUNDUP FOR KANSAS
NATIONAL WEATHER SERVICE GOODLAND KS
200 PM CDT SAT JUL 30 2016

NOTE:  "FAIR" INDICATES FEW OR NO CLOUDS BELOW 12,000 FEET WITH NO
SIGNIFICANT WEATHER AND/OR OBSTRUCTIONS TO VISIBILITY.

KSZ001>006-013>018-027>032-041>047-302000-
NORTHWEST KANSAS

CITY           SKY/WX    TMP DP  RH WIND       PRES   REMARKS
GOODLAND       SUNNY     85  61  44 SE13      29.98F
HAYS           PTSUNNY   86  66  51 S14       29.96F
HILL CITY      SUNNY     87  67  51 SE13      29.96F
RUSSELL        MOSUNNY   88  65  46 S15       29.96F
$$

KSZ061>065-074>080-084>089-302000-
SOUTHWEST KANSAS

CITY           SKY/WX    TMP DP  RH WIND       PRES   REMARKS
DODGE CITY     SUNNY     88  62  41 S12G20    29.99F
ELKHART          N/A     89  64  43 S16         N/A
GARDEN CITY    SUNNY     86  63  45 S15       29.97F
GREAT BEND     MOSUNNY   84  66  54 S15       29.97F
LIBERAL        SUNNY     91  63  38 SW16G24   29.99F
PRATT          SUNNY     83  66  56 S6        29.98F
$$

KSZ066>073-081>083-090>101-302000-
SOUTHEAST KANSAS

CITY           SKY/WX    TMP DP  RH WIND       PRES   REMARKS
CHANUTE        LGT RAIN  86  72  62 S6        29.99F
COFFEYVILLE    CLOUDY    84  71  65 SE6       29.97F
HUTCHINSON     SUNNY     86  68  54 SE9       29.98F
MEDICINE LODGE   N/A     86  67  52 VRB6      29.95F
NEWTON         SUNNY     83  68  60 S10       30.00F
PARSONS        CLOUDY    84  71  65 SE3       29.99F
WICHITA INTL   MOSUNNY   85  68  56 SE12      29.97F
WICHITA JABRA  MOSUNNY   84  68  58 SE7       29.99F
WICHITA MCCONL MOSUNNY   85  66  52 SE9       29.98F
WINFIELD       CLOUDY    83  70  64 E9        29.97F
$$

KSZ007>012-019>026-033>040-048>060-102>105-302000-
NORTHEAST KANSAS

CITY           SKY/WX    TMP DP  RH WIND       PRES   REMARKS
CONCORDIA      SUNNY     80  65  59 E13       29.99F
EMPORIA        MOSUNNY   85  70  60 SE8       30.00F
LAWRENCE       SUNNY     85  69  58 E6        30.00F
MANHATTAN      MOSUNNY   86  71  60 NE8       29.98F
MARYSVILLE     CLOUDY    72  68  88 SE10      30.00F
OLATHE IND     PTSUNNY   84  67  56 S8        30.02F
OLATHE EXE     MOSUNNY   83  64  52 CALM      30.01F
SALINA         SUNNY     89  65  44 SE10G17   29.97F
TOPEKA BILLARD MOSUNNY   84  67  56 CALM      30.00F
TOPEKA FORBES  MOSUNNY   85  68  56 VRB5      30.01F
$$




USA.gov is the U.S. government's official web portal to all federal, state and local government web resources and services.